Weather in Welland

Canada     42°59′36″N   79°14′19″W
temp.,
°C
wind,
m/s
gust,
m/s
humid.,
%
clouds,
%
prec.,
mm/h
press.,
hPa
HPBL,
m
6 march, sat
sat601:00−5n7106399 0.7 1020894
04:00−6n4663100 0.0 1021935
07:00−7nnw3476100 0.1 1022552
10:00−5wnw4668100 0.1 1023927
13:00−3nw5853100 0.1 10231065
16:00−1nw575298 0.0 10231277
19:00−4nw485769 0.0 1025825
22:00−5nw47570 0.0 1026855
7 march, sun
sun701:00−6nw24590 0.0 1027482
04:00−7wnw346322 0.0 1028308
07:00−7wnw367016 0.0 1030341
10:00−5nw465831 0.0 10301126
13:00−3nnw454766 0.0 10311290
16:00−4n344862 0.0 1030974
19:00−5nne345239 0.0 1033579
22:00−6ne23570 0.0 1033523
8 march, mon
mon801:00−7sse12630 0.0 1033204
04:00−7sse246884 0.0 1033220
07:00−6s367084 0.0 1033175
10:00−2ssw586286 0.0 1031390
13:00+3ssw6125193 0.0 1029548
16:00+6sw81458100 0.0 1027785
19:00+4sw51476100 0.0 1027370
22:00+4wsw5128693 0.0 1027280
9 march, tue
tue901:00+2wsw369367 0.0 1027119
04:00+1w339530 0.0 102866
07:00+1w129542 0.0 102921
10:00+5ssw138479 0.0 1030306
13:00+6sw478489 0.0 1029381
16:00+8sw5981100 0.0 1028424
19:00+4ssw359076 0.0 102888
22:00+5ssw412870 0.0 1028240
10 march, wed
wed1001:00+6ssw614840 0.0 1027345
04:00+5ssw513830 0.0 1026328
07:00+5ssw512844 0.0 1026314
10:00+9ssw7137037 0.0 1025497
13:00+12sw7146548 0.0 1023704
16:00+12sw7146894 0.0 1021649
19:00+12ssw8177296 0.0 1021622
22:00+11ssw91976100 0.0 1020732